Regional Weather Roundup
Issued by NWS Charleston, SC

Current Version | Previous Version | Graphics & Text | Print | Product List | Glossary On
Versions: 1 2 3 4 5 6 7 8 9 10 11 12 13 14 15 16 17 18 19 20 21 22 23 24 25 26 27 28 29 30 31 32 33 34 35 36 37 38 39 40 41 42 43 44 45 46 47 48 49 50
000 ASUS42 KCHS 280212 RWRCHS REGIONAL WEATHER ROUNDUP NATIONAL WEATHER SERVICE CHARLESTON SC 1000 PM EDT MON MAR 27 2017 NOTE: "FAIR" INDICATES FEW OR NO CLOUDS BELOW 12,000 FEET WITH NO SIGNIFICANT WEATHER AND/OR OBSTRUCTIONS TO VISIBILITY. NOT ALL STATIONS ARE QUALITY CONTROLLED. USE DATA WITH CAUTION... ESPECIALLY DEWPOINT OBSERVATIONS. SCZ027-030-031-034>040-042>050-280300- ...SOUTHEAST SOUTH CAROLINA... CITY SKY/WX TMP DP RH WIND PRES REMARKS N CHARLESTON PTCLDY 64 58 80 S5 30.04R WATERFRONT PRK N/A 66 62 87 S6 30.02R JOHNS ISLAND FAIR 64 61 88 S6 30.04R PINOPOLIS N/A 68 59 73 VRB3 29.93R MONCKS CORNER FAIR 64 55 72 S5 30.04R SUMMERVILLE FAIR 64 59 82 CALM 30.05R BEAUFORT MCAS PTCLDY 68 63 84 S6 30.04R BEAUFORT ARPT FAIR 64 61 88 S6 30.04R HILTON HEAD IS PTCLDY 66 61 82 S7 30.05R WALTERBORO PTCLDY 64 57 77 S3 30.05R ALLENDALE FAIR 68 61 77 SE8 30.00S ...SOUTHERN MIDLANDS AND PEE DEE... CITY SKY/WX TMP DP RH WIND PRES REMARKS GEORGETOWN FAIR 63 57 82 CALM 30.05R KINGSTREE FAIR 66 55 68 SE6 30.03R ORANGEBURG PTCLDY 68 59 73 S9 30.02R BARNWELL FAIR 72 63 73 SE5 30.01R AIKEN FAIR 68 59 73 SE6 30.01R MANNING FAIR 64 57 77 S5 30.03R COLUMBIA MOCLDY 72 59 63 S9 29.97S SUMTER PTCLDY 69 59 71 S10 29.98R FLORENCE MOCLDY 67 59 75 S9 30.02R MYRTLE BEACH MOCLDY 66 59 77 S12 30.05R N MYRTLE BEACH PTCLDY 67 59 75 S13 30.04S $$ GAZ063-065-086>088-099>101-113>116-118-119-134>141-150-280300- ...SOUTHEAST GEORGIA... CITY SKY/WX TMP DP RH WIND PRES REMARKS SAVANNAH ARPT PTCLDY 66 58 75 S8 30.04R HUNTER AAF CLEAR 67 62 86 CALM 30.02R FORT STEWART PTCLDY 65 58 77 SE6 30.01R STATESBORO CLEAR 69 62 77 S6 30.01S SYLVANIA MOCLDY N/A N/A N/A CALM 30.02S CLAXTON FAIR N/A N/A N/A SE5 30.02R ...CSRA...CENTRAL AND FAR SOUTHEAST GEORGIA... CITY SKY/WX TMP DP RH WIND PRES REMARKS THOMSON PTCLDY 65 57 74 W5 30.02R AUGUSTA-BUSH PTCLDY 75 62 64 S10 29.97R AUGUSTA-DANIEL CLEAR 74 55 51 SE7 29.98R SWAINSBORO MOCLDY 70 61 73 SE6 30.00R VIDALIA CLOUDY 73 61 64 S8 30.01R EASTMAN MOCLDY 69 51 53 CALM 30.01R HAZLEHURST FAIR 74 63 68 SE8 29.99R ALMA PTCLDY 71 61 70 SE8 30.01R WAYCROSS MOCLDY 74 62 64 S7 30.02R JESUP MOCLDY 68 57 68 SE3 30.03R BAXLEY CLOUDY 73 63 68 S5 30.01R BRUNSWICK CLEAR 70 64 83 S8 30.05R SAINT SIMONS CLEAR 67 62 84 SE7 30.04R $$ SCZ027-028-034-036>038-045-046-048>050-GAZ119-141-280300- ...LAKE AND SUPPLEMENTAL COASTAL OBSERVATIONS... STATION/POSITION TIME TEMP WIND PRES WAVE SWELL AIR SEA DIR/SP/G HT/PER HT/PER/DIR (UTC) (F) (DEG/KT/KT) (MB) (FT/S) (FT/S/D) WINYAH BAY 0045 66 170/ 6 1016.0 LAKE MURRAY 0120 67 110/ 3/ 5 1013.9F ACE BASIN NERRS 0045 65 160/ 1 1016.0 FORT PULASKI 0148 67 64 190/ 6/ 9 1017.4R SAPELO ISLAND 0100 68 150/ 7 1017.0 $$ ANZ835-935-AMZ111-154-330-350-352-354-370-450-454-472-280300- ...C-MAN AND BUOY OBSERVATIONS... STATION/POSITION TIME TEMP WIND PRES WAVE SWELL AIR SEA DIR/SP/G HT/PER HT/PER/DIR (UTC) (F) (DEG/KT/KT) (MB) (FT/S) (FT/S/D) BUOY 41004 0050 72 73 160/ 10/ 12 1016.7 4/10 3/140/10 BUOY 41008 0050 66 64 150/ 8/ 10 1016.2 4/11 3/100/11 FOLLY BEACH CMAN 0100 65 180/ 6/ 7 1017.4S CAPERS NEARSHORE 0108 64 220/ 6/ 8 1016.6S FRIPP NEARSHORE 0108 65 62 170/ 8/ 10 1016.1S STATION/POSITION TIME TEMP WIND PRES WAVE SWELL AIR SEA DIR/SP/G HT/PER HT/PER/DIR (UTC) (F) (DEG/KT/KT) (MB) (FT/S) (FT/S/D) 5E ST. MARYS GA 0130 68 N/A 3/11 2/110/11 FRYING PAN BUOY 0150 72 76 180/ 12/ 14 1017.5R 5/11 5/160/11 BUOY 41025 0150 71 75 200/ 14/ 16 1017.8S 4/ 9 3/140/ 9 CAPE LOOKOUT NC 0200 66 170/ 7/ 8 1017.4R BUOY 41002 0150 68 72 100/ 8/ 10 1019.5R 6/10 5/110/10 BUOY 41010 NOT AVBL ST AUGUSTINE FL 0200 69 71 140/ 5/ 6 1018.2R $$

USA.gov is the U.S. government's official web portal to all federal, state and local government web resources and services.